Regional Weather Roundup
Issued by NWS Green Bay, WI

Home | Current Version | Previous Version | Graphics & Text | Print | Product List | Glossary Off
Versions: 1 2 3 4 5 6 7 8 9 10 11 12 13 14 15 16 17 18 19 20 21 22 23 24 25 26 27 28 29 30 31 32 33 34 35 36 37 38 39 40 41 42 43 44 45 46 47 48 49 50

000
ASUS43 KGRB 271711
RWRGRB

NORTH-CENTRAL AND NORTHEAST WISCONSIN REGIONAL WEATHER ROUNDUP
NATIONAL WEATHER SERVICE GREEN BAY WI
1200 PM CDT WED MAY 27 2015

WIZ005-009-010>012-018-019-271800-
NORTH CENTRAL WISCONSIN

CITY           SKY/WX    TMP DP  RH WIND       PRES   REMARKS
IRONWOOD       MOSUNNY   72  57  60 W9        29.82S
MANITOWISH WTR MOSUNNY   68  58  71 SW9G16    29.89R
ARBOR VITAE    MOSUNNY   70  59  69 W6        29.89S
EAGLE RIVER    MOSUNNY   67  55  65 W14       29.88S
LAND O LAKES   SUNNY     70  57  63 NW6       29.89R
RHINELANDER    MOSUNNY   67  57  70 W18       29.91R
PHILLIPS       SUNNY     66  58  74 SW9       29.91R
ANTIGO         CLOUDY    60  59  96 W10       29.92R
TOMAHAWK       PTSUNNY   65  56  73 W8        29.93R
MERRILL        PTSUNNY   64  60  87 SW10      29.94S
$$

WIZ013-073-271800-
NORTHEAST WISCONSIN

CITY           SKY/WX    TMP DP  RH WIND       PRES   REMARKS
IRON MOUNTAIN  CLOUDY    66  58  75 W9        29.83R
MARINETTE      CLOUDY    63  55  77 SW5       29.88S
OCONTO         CLOUDY    62  61  96 SW8       29.90R
$$

WIZ017-030-035>037-045-271800-
CENTRAL WISCONSIN

CITY           SKY/WX    TMP DP  RH WIND       PRES   REMARKS
MEDFORD        MOSUNNY   65  59  80 W6        29.94R
WAUSAU         CLOUDY    61  58  90 SW7       29.94R
MOSINEE        PTSUNNY   61  61 100 CALM        N/A
MARSHFIELD     MOSUNNY   68  58  70 SW13      29.96R
WISC RAPIDS    PTSUNNY   66  57  72 W7        29.97R
STEVENS POINT  RAIN      60  56  88 W5        29.97R
WAUPACA        CLOUDY    66  58  76 W3        29.95S
SHAWANO        LGT RAIN  64  59  85 W9        29.92S
CLINTONVILLE   CLOUDY    63  59  88 W8        29.93R
$$

WIZ038-039-048-051-271800-
FOX VALLEY

CITY           SKY/WX    TMP DP  RH WIND       PRES   REMARKS
NWS GREEN BAY  LGT RAIN  63  58  83 W12       29.93R
APPLETON       DRIZZLE   63  59  88 W9        29.95R
OSHKOSH        CLOUDY    63  56  78 W8        29.96R
FOND DU LAC    CLOUDY    62  53  72 N13G23    29.98R
$$

WIZ022-050-052-271800-
EAST CENTRAL WISCONSIN

CITY           SKY/WX    TMP DP  RH WIND       PRES   REMARKS
STURGEON BAY   CLOUDY    59  55  88 W10       29.92S
MANITOWOC      LGT RAIN  62  59  90 NW13      29.94R
SHEBOYGAN      CLOUDY    62  56  80 NW13      29.94R
$$

LMZ563-521-522-541>543-271800-
LAKESHORE

STATION/POSITION TIME  TEMP    WIND        PRES    VSBY  WAVE
                       AIR SEA DIR/SP/G                  HT/PER
                 (UTC) (F)     (DEG/KT/KT) (MB)    (MI)  (FT/S)
SHEBOYGAN LKSHOR 1700   62     290/ 15/ 19 1014.0R
KEWAUNEE LKSHORE 1600   60     290/  7/ 13 1011.6R
ALGOMA MARINA    1638          320/  9/ 13   N/A
NORTHPORT PIER   1600   57     260/  5/ 12 1010.8R
N MID LAKE BUOY  1650   45 36  240/ 12/ 12 1011.2R         3/ 6
SISTER BAY LKSHO 1633   58     250/ 10/ 10   N/A
CHAMBERS ISLAND  1600   58     220/  5/  9 1011.5R
MENOMINEE LKSHOR 1600   60     250/  8/  9 1012.4R
$$


USA.gov is the U.S. government's official web portal to all federal, state and local government web resources and services.